{"data":{"norad_id":68512,"epoch":"2026-05-25T05:01:36.003072Z","epoch_age_seconds":52962,"freshness":"FRESH","line1":"1 68512U 26068E   26145.20944448  .00059530  00000+0  10695-2 0  9991","line2":"2 68512  53.1581 127.8253 0001504  99.2547 260.8633 15.49327851  8743","mean_motion":15.49327851,"eccentricity":0.0001504,"inclination_deg":53.1581,"raan_deg":127.8253,"arg_perigee_deg":99.2547,"mean_anomaly_deg":260.8633,"bstar":0.0010695,"rev_number":874,"period_min":92.943530258658,"perigee_km":417.66890647417,"apogee_km":419.71339238152,"semimajor_km":6796.8281494278,"source":"CELESTRAK","updated_at":"2026-05-25T13:38:21.953167Z"}}